Miscellaneous Local Product
Issued by NWS Hastings, NE

Home | Current Version | Previous Version | Graphics & Text | Print | Product List | Glossary On
Versions: 1 2 3 4 5 6 7 8 9 10 11 12 13 14 15 16 17 18 19 20 21 22 23 24 25 26 27 28 29 30 31 32 33 34 35 36 37 38 39 40 41 42 43 44 45 46 47 48 49 50
000
AXUS43 KGID 261402
MISGRI

GID CWA HOURLY WEATHER ROUNDUP
NATIONAL WEATHER SERVICE HASTINGS NE
900 AM CDT WED AUG 26 2015

NOTE: "FAIR" INDICATES FEW OR NO CLOUDS BELOW 12,000 FEET WITH NO
SIGNIFICANT WEATHER AND/OR OBSTRUCTIONS TO VISIBILITY.

...SOUTH CENTRAL NEBRASKA...

CITY           SKY/WX    TMP DP  RH WIND       PRES   REMARKS
GRAND ISLAND   SUNNY     64  56  75 SE7       30.17S
HASTINGS       SUNNY     64  55  72 SE7       30.16S
KEARNEY        SUNNY     61  54  77 SE6       30.15F
ORD            SUNNY     61  58  90 SE5       30.14S
YORK           SUNNY     61  57  88 SE8       30.18S
AURORA         SUNNY     61  61  98 SE8       30.17S
LEXINGTON      SUNNY     60  58  95 CALM      30.14S
HOLDREGE       SUNNY     64  58  80 SE3       30.14F
HEBRON         SUNNY     62  58  88 CALM      30.17S

...NEBRASKA PANHANDLE...

CITY           SKY/WX    TMP DP  RH WIND       PRES   REMARKS
CHADRON        MOSUNNY   63  57  81 CALM      30.09S
ALLIANCE       MOSUNNY   66  62  87 S6        30.14S
SCOTTSBLUFF    MOSUNNY   62  59  90 E6        30.14S FOG
SIDNEY         SUNNY     70  56  61 S3        30.17S

...WESTERN AND NORTH CENTRAL NEBRASKA...

CITY           SKY/WX    TMP DP  RH WIND       PRES   REMARKS
VALENTINE      SUNNY     64  60  87 CALM      30.09S
AINSWORTH      MOSUNNY   66  60  80 S8        30.10F
ONEILL         SUNNY     64  59  83 S14       30.14S
BROKEN BOW     SUNNY     62  57  83 SE6       30.14S
IMPERIAL       SUNNY     67  62  84 SE7       30.15R
NORTH PLATTE   SUNNY     61  58  90 E3        30.14S
MCCOOK         SUNNY     67  60  78 SE5       30.13S

...EASTERN NEBRASKA...

CITY           SKY/WX    TMP DP  RH WIND       PRES   REMARKS
NORFOLK        SUNNY     63  55  75 SE10      30.18S
SO SIOUX CITY  SUNNY     57  52  83 SE6       30.20R
TEKAMAH        SUNNY     58  54  86 CALM      30.20S
COLUMBUS       SUNNY     63  54  72 E5        30.19S
ALBION         SUNNY     60  55  85 SE7       30.17F
OMAHA EPPLEY   SUNNY     63  55  75 SE5       30.21R
OFFUTT AFB     SUNNY     62  56  79 E6        30.20R
LINCOLN        SUNNY     66  57  72 SE5       30.20R
NEBRASKA CITY  SUNNY     63  53  68 SE5       30.21R
BEATRICE       SUNNY     63  57  79 E5        30.18S
FALLS CITY     SUNNY     63  59  87 E3        30.20R

...NORTHERN KANSAS...

CITY           SKY/WX    TMP DP  RH WIND       PRES   REMARKS
GOODLAND       SUNNY     66  63  90 S7        30.16S
HILL CITY      SUNNY     69  61  75 SE5       30.14S
NORTON         SUNNY     68  57  68 SE7       30.12F
PHILLIPSBURG   SUNNY     68  55  64 E7        30.14F
SMITH CENTER   SUNNY     64  55  72 E5        30.15S
HAYS           SUNNY     70  55  60 SE7       30.14S
RUSSELL        SUNNY     72  60  66 S9        30.13S
CONCORDIA      SUNNY     62  57  83 E5        30.16S
SALINA         SUNNY     70  60  70 S6        30.14F
TOPEKA         SUNNY     65  60  84 E5        30.19R



USA.gov is the U.S. government's official web portal to all federal, state and local government web resources and services.